Tracking 25995 objects as of 19-Aug-2022
HD Live streaming from Space Station
objects crossing your sky now

GSAT 1

Track GSAT 1 now!
GSAT 1 is classified as:


NORAD ID: 26745
Int'l Code: 2001-015A
Perigee: 33,868.5 km
Apogee: 35,785.3 km
Inclination: 12.3 °
Period: 1,387.0 minutes
Semi major axis: 41197 km
RCS: 3.1622 m2 (large)
Launch date: April 18, 2001
Source: India (IND)
Launch site: SRIHARIKOTA (SRI)
aabbcc
Your satellite tracking list
Your tracking list is empty




NASA's NSSDC Master Catalog

Two Line Element Set (TLE):
1 26745U 01015A   22230.50521260 -.00000220  00000-0  00000-0 0  9996
2 26745  12.2852  14.2900 0232631 257.3795 278.0589  1.03822231 81007
Source of the keplerian elements: AFSPC